Location: Pardubice
(50.0330°N, 15.7830°E)
Time: 10:14:14
(UTC+02:00)

Vanguard 1 Rocket - Visible Passes

Search period start: 07 October 2024 00:00
Search period end: 17 October 2024 00:00
Orbit: 650 x 4218 km, 34.3° (Epoch: 06 October)

Date Brightness Start Highest point End Pass type
(mag) Time Alt. Az. Time Alt. Az. Time Alt. Az.
07 Oct 10.1 03:17:18 25° SSE 03:17:18 25° SSE 03:25:38 10° SE visible
07 Oct 10.3 05:34:31 14° SW 05:40:17 19° SSW 05:50:57 10° S visible
08 Oct 10.7 02:09:29 13° SE 02:09:29 13° SE 02:11:13 10° SE visible
08 Oct 10.1 04:26:42 22° SSW 04:27:18 22° SSW 04:38:16 10° SSE visible
09 Oct 10.3 03:18:55 20° SSE 03:18:55 20° SSE 03:24:41 10° SE visible
09 Oct 10.4 05:36:09 11° SW 05:40:44 13° SSW 05:47:21 10° S visible
10 Oct 10.3 04:28:22 17° SSW 04:28:22 17° SSW 04:36:09 10° SSE visible
11 Oct 10.6 03:20:36 14° SSE 03:20:36 14° SSE 03:23:25 10° SSE visible
12 Oct 10.6 04:30:03 12° SSW 04:30:03 12° SSW 04:32:51 10° S visible
